FW3046 Weather Reports


Display with metric or nautical units.
time (UTC)temp
F
wind
direction
speed
MPH
gust
MPH
rain 1hr
in
rain 24hr
in
rain mn
in
humidity
%
barometer
mb
20200708001615 75 135 0.0 0.0 0.00 0.14 0.14 78 1014.4
20200708000149 76 135 0.0 0.0 0.00 0.14 0.14 75 1014.5
20200707234551 76 110 0.0 0.0 0.00 0.14 0.14 74 1014.4
20200707233052 77 110 0.0 0.0 0.00 0.14 0.14 73 1014.6
20200707231548 79 199 0.0 1.0 0.00 0.14 0.14 74 1014.5
20200707230035 79 241 0.0 3.0 0.00 0.14 0.14 74 1014.3
20200707224539 78 243 1.0 3.0 0.00 0.14 0.14 75 1014.1
20200707223037 77 139 0.0 5.0 0.00 0.14 0.14 78 1014.2
20200707221627 77 152 0.0 2.0 0.00 0.14 0.14 78 1014.4
20200707220030 77 62 0.0 3.0 0.00 0.14 0.14 80 1014.9
20200707214531 77 225 0.0 6.0 0.00 0.14 0.14 78 1015.1
20200707213033 77 303 1.0 5.0 0.00 0.14 0.14 79 1015.2
20200707211556 77 230 0.0 0.0 0.00 0.14 0.14 81 1015.2
20200707210102 77 229 0.0 0.0 0.00 0.14 0.14 83 1015.2
20200707204532 77 236 0.0 0.0 0.00 0.14 0.14 83 1015.3
20200707203046 77 236 0.0 0.0 0.00 0.14 0.14 81 1015.0
20200707201613 76 236 0.0 0.0 0.00 0.14 0.14 85 1014.8
20200707200103 76 225 0.0 2.0 0.01 0.14 0.14 84 1014.7
20200707194616 76 167 0.0 0.0 0.01 0.14 0.14 86 1014.3
20200707193045 74 167 0.0 0.0 0.02 0.14 0.14 89 1013.9
20200707191609 72 167 0.0 0.0 0.03 0.14 0.14 89 1014.2
20200707190051 72 167 0.0 0.0 0.03 0.13 0.13 88 1014.6
20200707184532 72 167 0.0 0.0 0.06 0.13 0.13 87 1015.2
20200707183020 72 313 1.0 3.0 0.12 0.12 0.12 87 1016.0
20200707181547 71 153 0.0 1.0 0.11 0.11 0.11 87 1016.3
20200707180029 73 83 0.0 4.0 0.10 0.10 0.10 82 1015.3
20200707174522 76 59 0.0 6.0 0.07 0.07 0.07 75 1015.2
20200707173033 81 77 1.0 3.0 0.00 0.00 0.00 67 1015.0
20200707171540 83 164 1.0 6.0 0.00 0.00 0.00 61 1014.9
20200707170034 88 198 4.0 13.0 0.00 0.00 0.00 54 1015.0
20200707164541 93 87 0.0 4.0 0.00 0.00 0.00 54 1015.0
20200707163023 91 55 0.0 4.0 0.00 0.00 0.00 52 1015.2
20200707161521 91 115 0.0 4.0 0.00 0.00 0.00 54 1015.4
20200707160019 91 45 0.0 3.0 0.00 0.00 0.00 51 1015.4
20200707154508 90 99 0.0 3.0 0.00 0.00 0.00 55 1015.5
20200707153007 90 68 0.0 3.0 0.00 0.00 0.00 56 1015.5
20200707151700 89 137 0.0 3.0 0.00 0.00 0.00 57 1015.5
20200707150147 89 176 0.0 4.0 0.00 0.00 0.00 58 1015.5
20200707144649 88 109 1.0 3.0 0.00 0.00 0.00 56 1015.5
20200707143106 88 124 0.0 2.0 0.00 0.00 0.00 56 1015.6
20200707141716 87 321 0.0 2.0 0.00 0.00 0.00 58 1015.5
20200707140104 88 66 0.0 1.0 0.00 0.00 0.00 56 1015.4
20200707133248 85 195 0.0 1.0 0.00 0.00 0.00 60 1015.5
20200707131555 83 161 0.0 1.0 0.00 0.00 0.00 65 1015.5
20200707130118 81 198 0.0 0.0 0.00 0.00 0.00 71 1015.4
20200707124536 77 198 0.0 0.0 0.00 0.00 0.00 76 1015.5
20200707123116 74 195 0.0 0.0 0.00 0.00 0.00 80 1015.5
20200707121531 73 195 0.0 0.0 0.00 0.00 0.00 82 1015.4
20200707120035 71 195 0.0 0.0 0.00 0.00 0.00 85 1015.4
20200707114555 69 195 0.0 0.0 0.00 0.00 0.00 88 1015.5
20200707113022 67 129 0.0 0.0 0.00 0.00 0.00 93 1015.5
20200707111520 67 129 0.0 0.0 0.00 0.00 0.00 93 1015.4
20200707110055 66 129 0.0 0.0 0.00 0.00 0.00 93 1015.4
20200707104613 65 129 0.0 0.0 0.00 0.00 0.00 93 1015.5
20200707103017 65 129 0.0 0.0 0.00 0.00 0.00 93 1015.4
20200707101526 65 129 0.0 0.0 0.00 0.00 0.00 93 1015.5
20200707100022 65 129 0.0 0.0 0.00 0.00 0.00 93 1015.6
20200707094525 65 129 0.0 0.0 0.00 0.00 0.00 92 1015.6
20200707093022 65 129 0.0 0.0 0.00 0.00 0.00 92 1015.5
20200707091523 65 129 0.0 0.0 0.00 0.00 0.00 92 1015.5
20200707090012 65 129 0.0 0.0 0.00 0.00 0.00 92 1015.2
20200707084512 65 129 0.0 0.0 0.00 0.00 0.00 92 1015.2
20200707083015 65 129 0.0 0.0 0.00 0.00 0.00 92 1015.1
20200707081534 64 129 0.0 0.0 0.00 0.00 0.00 91 1015.2
20200707080018 65 129 0.0 0.0 0.00 0.00 0.00 91 1015.3
20200707074514 65 129 0.0 0.0 0.00 0.00 0.00 90 1015.2
20200707073010 65 129 0.0 0.0 0.00 0.00 0.00 90 1015.3
20200707071659 65 129 0.0 0.0 0.00 0.00 0.00 90 1015.4
20200707070216 66 129 0.0 0.0 0.00 0.00 0.00 89 1015.5
20200707064710 66 129 0.0 0.0 0.00 0.00 0.00 88 1015.6
20200707063120 66 129 0.0 0.0 0.00 0.00 0.00 88 1015.5
20200707061620 66 129 0.0 0.0 0.00 0.00 0.00 87 1015.7
20200707060118 67 129 0.0 0.0 0.00 0.00 0.00 87 1015.8
20200707054650 67 129 0.0 0.0 0.00 0.00 0.00 86 1016.0
20200707053230 67 129 0.0 0.0 0.00 0.00 0.00 85 1016.1
20200707051714 68 129 0.0 0.0 0.00 0.00 0.00 84 1016.2
20200707050312 68 129 0.0 0.0 0.00 0.00 0.00 83 1016.2
20200707044629 69 129 0.0 0.0 0.00 0.00 0.00 81 1016.1
20200707043145 69 129 0.0 0.0 0.00 0.00 0.00 81 1016.1
20200707041702 69 129 0.0 0.0 0.00 0.00 0.00 81 1016.3
20200707040056 69 129 0.0 0.0 0.00 0.00 0.00 80 1016.1
20200707034652 70 129 0.0 0.0 0.00 0.00 0.00 78 1016.0
20200707033111 71 129 0.0 0.0 0.00 0.00 0.00 78 1015.9
20200707031645 71 129 0.0 0.0 0.00 0.00 0.00 75 1015.7
20200707030051 72 129 0.0 0.0 0.00 0.00 0.00 73 1015.6
20200707024610 73 129 0.0 0.0 0.00 0.00 0.00 72 1015.7
20200707023129 73 129 0.0 0.0 0.00 0.00 0.00 71 1015.7
20200707021539 74 129 0.0 0.0 0.00 0.00 0.00 68 1015.6
20200707020053 75 129 0.0 0.0 0.00 0.00 0.00 68 1015.7
20200707014605 75 129 0.0 0.0 0.00 0.00 0.00 64 1015.5
20200707013047 76 129 0.0 0.0 0.00 0.00 0.00 64 1015.3
20200707011541 78 129 0.0 0.0 0.00 0.00 0.00 62 1015.1
20200707010120 79 129 0.0 0.0 0.00 0.00 0.00 59 1015.1
20200707004613 80 129 0.0 0.0 0.00 0.00 0.00 57 1015.2
20200707003125 82 129 0.0 1.0 0.00 0.00 0.00 55 1015.1